Time,TemperatureF,DewpointF,PressureIn,WindDirection,WindDirectionDegrees,WindSpeedMPH,WindSpeedGustMPH,Humidity,HourlyPrecipIn,Conditions,Clouds,dailyrainin,SoftwareType,DateUTC
2013-07-29 00:02:00,54.0,-99.9,-100.00,North,-999,-999.0,-999.0,-999,0.00,,,0.58,,2013-07-29 06:02:00,
2013-07-29 00:12:00,54.0,-99.9,-100.00,North,-999,-999.0,-999.0,-999,0.00,,,0.58,,2013-07-29 06:12:00,
2013-07-29 00:43:00,54.0,-99.9,-100.00,North,-999,-999.0,-999.0,-999,0.00,,,0.55,,2013-07-29 06:43:00,
2013-07-29 00:53:00,54.0,-99.9,-100.00,North,-999,-999.0,-999.0,-999,0.00,,,0.55,,2013-07-29 06:53:00,
2013-07-29 01:03:00,54.0,-99.9,-100.00,North,-999,-999.0,-999.0,-999,0.00,,,0.55,,2013-07-29 07:03:00,
2013-07-29 01:13:00,54.0,-99.9,-100.00,North,-999,-999.0,-999.0,-999,0.00,,,0.55,,2013-07-29 07:13:00,
2013-07-29 01:43:00,54.0,-99.9,-100.00,North,-999,-999.0,-999.0,-999,0.00,,,0.54,,2013-07-29 07:43:00,
2013-07-29 01:53:00,54.0,-99.9,-100.00,North,-999,-999.0,-999.0,-999,0.00,,,0.54,,2013-07-29 07:53:00,
2013-07-29 02:02:00,54.0,-99.9,-100.00,North,-999,-999.0,-999.0,-999,0.00,,,0.54,,2013-07-29 08:02:00,
2013-07-29 02:12:00,54.0,-99.9,-100.00,North,-999,-999.0,-999.0,-999,0.00,,,0.54,,2013-07-29 08:12:00,
2013-07-29 02:43:00,54.0,-99.9,-100.00,North,-999,-999.0,-999.0,-999,0.00,,,0.49,,2013-07-29 08:43:00,
2013-07-29 02:53:00,54.0,-99.9,-100.00,North,-999,-999.0,-999.0,-999,0.00,,,0.49,,2013-07-29 08:53:00,
2013-07-29 03:02:00,54.0,-99.9,-100.00,North,-999,-999.0,-999.0,-999,0.00,,,0.49,,2013-07-29 09:02:00,
2013-07-29 03:12:00,54.0,-99.9,-100.00,North,-999,-999.0,-999.0,-999,0.00,,,0.49,,2013-07-29 09:12:00,
2013-07-29 03:15:00,53.0,-99.9,-100.00,North,-999,-999.0,-999.0,-999,0.00,,,0.43,,2013-07-29 09:15:00,
2013-07-29 03:43:00,53.0,-99.9,-100.00,North,-999,-999.0,-999.0,-999,0.00,,,0.43,,2013-07-29 09:43:00,
2013-07-29 03:53:00,53.0,-99.9,-100.00,North,-999,-999.0,-999.0,-999,0.00,,,0.43,,2013-07-29 09:53:00,
2013-07-29 04:09:00,53.0,-99.9,-100.00,North,-999,-999.0,-999.0,-999,0.00,,,0.43,,2013-07-29 10:09:00,
2013-07-29 04:15:00,52.0,-99.9,-100.00,North,-999,-999.0,-999.0,-999,0.08,,,0.50,,2013-07-29 10:15:00,
2013-07-29 04:51:00,52.0,-99.9,-100.00,North,-999,-999.0,-999.0,-999,0.08,,,0.50,,2013-07-29 10:51:00,
2013-07-29 04:58:00,52.0,-99.9,-100.00,North,-999,-999.0,-999.0,-999,0.08,,,0.50,,2013-07-29 10:58:00,
2013-07-29 05:09:00,52.0,-99.9,-100.00,North,-999,-999.0,-999.0,-999,0.08,,,0.50,,2013-07-29 11:09:00,
2013-07-29 05:15:00,52.0,-99.9,-100.00,North,-999,-999.0,-999.0,-999,0.01,,,0.51,,2013-07-29 11:15:00,
2013-07-29 05:49:00,52.0,-99.9,-100.00,North,-999,-999.0,-999.0,-999,0.01,,,0.51,,2013-07-29 11:49:00,
2013-07-29 06:01:00,52.0,-99.9,-100.00,North,-999,-999.0,-999.0,-999,0.01,,,0.51,,2013-07-29 12:01:00,
2013-07-29 06:12:00,52.0,-99.9,-100.00,North,-999,-999.0,-999.0,-999,0.01,,,0.51,,2013-07-29 12:12:00,
2013-07-29 06:15:00,52.0,-99.9,-100.00,North,-999,-999.0,-999.0,-999,0.00,,,0.47,,2013-07-29 12:15:00,
2013-07-29 06:49:00,52.0,-99.9,-100.00,North,-999,-999.0,-999.0,-999,0.00,,,0.47,,2013-07-29 12:49:00,
2013-07-29 06:59:00,52.0,-99.9,-100.00,North,-999,-999.0,-999.0,-999,0.00,,,0.47,,2013-07-29 12:59:00,
2013-07-29 07:04:00,52.0,-99.9,-100.00,North,-999,-999.0,-999.0,-999,0.00,,,0.47,,2013-07-29 13:04:00,
2013-07-29 07:48:00,52.0,-99.9,-100.00,North,-999,-999.0,-999.0,-999,0.01,,,0.44,,2013-07-29 13:48:00,
2013-07-29 07:59:00,52.0,-99.9,-100.00,North,-999,-999.0,-999.0,-999,0.01,,,0.44,,2013-07-29 13:59:00,
2013-07-29 08:08:00,52.0,-99.9,-100.00,North,-999,-999.0,-999.0,-999,0.01,,,0.44,,2013-07-29 14:08:00,
2013-07-29 08:15:00,54.0,-99.9,-100.00,North,-999,-999.0,-999.0,-999,0.00,,,0.44,,2013-07-29 14:15:00,
2013-07-29 08:48:00,54.0,-99.9,-100.00,North,-999,-999.0,-999.0,-999,0.00,,,0.44,,2013-07-29 14:48:00,
2013-07-29 09:00:00,54.0,-99.9,-100.00,North,-999,-999.0,-999.0,-999,0.00,,,0.44,,2013-07-29 15:00:00,
2013-07-29 09:12:00,54.0,-99.9,-100.00,North,-999,-999.0,-999.0,-999,0.00,,,0.44,,2013-07-29 15:12:00,
2013-07-29 09:15:00,60.0,-99.9,-100.00,North,-999,-999.0,-999.0,-999,0.01,,,0.42,,2013-07-29 15:15:00,
2013-07-29 09:48:00,60.0,-99.9,-100.00,North,-999,-999.0,-999.0,-999,0.01,,,0.42,,2013-07-29 15:48:00,
2013-07-29 09:59:00,60.0,-99.9,-100.00,North,-999,-999.0,-999.0,-999,0.01,,,0.42,,2013-07-29 15:59:00,
2013-07-29 10:49:00,65.0,-99.9,-100.00,North,-999,-999.0,-999.0,-999,0.01,,,0.27,,2013-07-29 16:49:00,
2013-07-29 10:59:00,65.0,-99.9,-100.00,North,-999,-999.0,-999.0,-999,0.01,,,0.27,,2013-07-29 16:59:00,
2013-07-29 11:12:00,65.0,-99.9,-100.00,North,-999,-999.0,-999.0,-999,0.01,,,0.27,,2013-07-29 17:12:00,
2013-07-29 11:15:00,65.0,-99.9,-100.00,North,-999,-999.0,-999.0,-999,0.01,,,0.25,,2013-07-29 17:15:00,
2013-07-29 11:47:00,65.0,-99.9,-100.00,North,-999,-999.0,-999.0,-999,0.01,,,0.25,,2013-07-29 17:47:00,
2013-07-29 12:00:00,65.0,-99.9,-100.00,North,-999,-999.0,-999.0,-999,0.01,,,0.25,,2013-07-29 18:00:00,
2013-07-29 12:08:00,65.0,-99.9,-100.00,North,-999,-999.0,-999.0,-999,0.01,,,0.25,,2013-07-29 18:08:00,
2013-07-29 13:49:00,70.0,-99.9,-100.00,North,-999,-999.0,-999.0,-999,-99.99,,,0.17,,2013-07-29 19:49:00,
2013-07-29 14:09:00,70.0,-99.9,-100.00,North,-999,-999.0,-999.0,-999,-99.99,,,0.17,,2013-07-29 20:09:00,
2013-07-29 14:50:00,72.0,-99.9,-100.00,North,-999,-999.0,-999.0,-999,0.01,,,0.17,,2013-07-29 20:50:00,
2013-07-29 14:59:00,72.0,-99.9,-100.00,North,-999,-999.0,-999.0,-999,0.01,,,0.17,,2013-07-29 20:59:00,
2013-07-29 15:50:00,76.0,-99.9,-100.00,North,-999,-999.0,-999.0,-999,0.00,,,0.15,,2013-07-29 21:50:00,
2013-07-29 16:07:00,76.0,-99.9,-100.00,North,-999,-999.0,-999.0,-999,0.00,,,0.15,,2013-07-29 22:07:00,
2013-07-29 16:15:00,73.0,-99.9,-100.00,North,-999,-999.0,-999.0,-999,0.00,,,0.14,,2013-07-29 22:15:00,
2013-07-29 16:48:00,73.0,-99.9,-100.00,North,-999,-999.0,-999.0,-999,0.00,,,0.14,,2013-07-29 22:48:00,
2013-07-29 16:58:00,73.0,-99.9,-100.00,North,-999,-999.0,-999.0,-999,0.00,,,0.14,,2013-07-29 22:58:00,
2013-07-29 17:07:00,73.0,-99.9,-100.00,North,-999,-999.0,-999.0,-999,0.00,,,0.14,,2013-07-29 23:07:00,
2013-07-29 17:15:00,71.0,-99.9,-100.00,North,-999,-999.0,-999.0,-999,0.00,,,0.14,,2013-07-29 23:15:00,
2013-07-29 17:50:00,71.0,-99.9,-100.00,North,-999,-999.0,-999.0,-999,0.00,,,0.14,,2013-07-29 23:50:00,
2013-07-29 18:00:00,71.0,-99.9,-100.00,North,-999,-999.0,-999.0,-999,0.00,,,0.14,,2013-07-30 00:00:00,
2013-07-29 18:10:00,71.0,-99.9,-100.00,North,-999,-999.0,-999.0,-999,0.00,,,0.14,,2013-07-30 00:10:00,
2013-07-29 18:15:00,70.0,-99.9,-100.00,North,-999,-999.0,-999.0,-999,0.00,,,0.14,,2013-07-30 00:15:00,
2013-07-29 18:58:00,70.0,-99.9,-100.00,North,-999,-999.0,-999.0,-999,0.00,,,0.14,,2013-07-30 00:58:00,
2013-07-29 19:10:00,70.0,-99.9,-100.00,North,-999,-999.0,-999.0,-999,0.00,,,0.14,,2013-07-30 01:10:00,
2013-07-29 19:15:00,65.0,-99.9,-100.00,North,-999,-999.0,-999.0,-999,0.00,,,0.13,,2013-07-30 01:15:00,
2013-07-29 19:47:00,65.0,-99.9,-100.00,North,-999,-999.0,-999.0,-999,0.00,,,0.13,,2013-07-30 01:47:00,
2013-07-29 20:04:00,65.0,-99.9,-100.00,North,-999,-999.0,-999.0,-999,0.00,,,0.13,,2013-07-30 02:04:00,
2013-07-29 22:03:00,49.0,-99.9,-100.00,North,-999,-999.0,-999.0,-999,0.09,,,0.26,,2013-07-30 04:03:00,
2013-07-29 22:13:00,49.0,-99.9,-100.00,North,-999,-999.0,-999.0,-999,0.09,,,0.26,,2013-07-30 04:13:00,
2013-07-29 22:43:00,49.0,-99.9,-100.00,North,-999,-999.0,-999.0,-999,0.00,,,0.26,,2013-07-30 04:43:00,
2013-07-29 22:53:00,49.0,-99.9,-100.00,North,-999,-999.0,-999.0,-999,0.00,,,0.26,,2013-07-30 04:53:00,
2013-07-29 23:03:00,49.0,-99.9,-100.00,North,-999,-999.0,-999.0,-999,0.00,,,0.26,,2013-07-30 05:03:00,
2013-07-29 23:13:00,49.0,-99.9,-100.00,North,-999,-999.0,-999.0,-999,0.00,,,0.26,,2013-07-30 05:13:00,
2013-07-29 23:46:00,47.0,-99.9,-100.00,North,-999,-999.0,-999.0,-999,0.00,,,0.26,,2013-07-30 05:46:00,
2013-07-29 23:53:00,47.0,-99.9,-100.00,North,-999,-999.0,-999.0,-999,0.00,,,0.26,,2013-07-30 05:53:00,